Location: Byszew
(52.1813°N, 19.2693°E)
Time: 17:34:53
(UTC+00:00)

SPROUT - Pass Details

Date: 05 July 2022
Orbit: 588 x 598 km, 97.9° (Epoch: 09 August)

Event Time Altitude Azimuth Distance (km) Brightness Sun altitude
Exits shadow 23:32:08 24° 178° (S) 1,226 ? -14.5°
Maximum altitude 23:34:32 69° 257° (WSW) 636 ? -14.4°
Drops below altitude 10° 23:38:43 10° 341° (NNW) 1,932 ? -14.3°
Sets 23:40:54 0° 344° (NNW) 2,840 ? -14.2°
